(490163) = 2008 UW240

Discovered at Kitt Peak on 2008-10-26 by Spacewatch.

Orbit

Orbit type: Main Belt

Note: WebGL enabled browser required.

epoch2022-01-21.0
epoch JD2459600.5
perihelion date2018-08-16.75248
perihelion JD2458347.25248
argument of perihelion (°)36.32416
ascending node (°)274.04581
inclination (°)8.60697
eccentricity0.0755299
perihelion distance (AU)2.9239631
Tisserand w.r.t. Jupiter3.2
ΔV w.r.t. Earth (km/sec)10.9
semimajor axis (AU)3.1628531
mean anomaly (°)219.59486
mean daily motion (°/day)0.17522070
aphelion distance (AU)3.402
period (years)5.62
P-vector [x]0.64106634
P-vector [y]-0.73470365
P-vector [z]-0.22191102
Q-vector [x]0.75282710
Q-vector [y]0.54572305
Q-vector [z]0.36801864
absolute magnitude16.48
phase slope0.15
uncertainty0
referenceMPO 700738
observations used127
oppositions10
arc length (days)4910
first opposition used2008
last opposition used2022
residual rms (arc-secs)0.80
perturbers coarse indicatorM-v
perturbers precise indicator003Ek
first observation date used2008-10-26.0
last observation date used2022-04-06.0
computer namePan
JD of orbit computation2457875.088245
perihelion JD uncertainty (days)3.6911E-04
argument of perihelion uncertainty (°)6.2594E-05
ascending node uncertainty (°)2.6089E-05
inclination uncertainty (°)4.3378E-06
eccentricity uncertainty 6.1020E-08
perihelion distance uncertainty (AU)2.3227E-07
Minimum Orbit Intersection Distances (in AU)
for orbit epoch: 2458200.5, reference: MPO411465
Mercury2.48723
Venus2.20092
Earth1.91099
Mars1.51101
Jupiter1.78811
Saturn5.7203
Uranus14.9003
Neptune26.5945

Observations

129 total observations over interval: 2008 10 26.26713 – 2022 04 06.176688
These data are available for download (format description).

